Precipitable_Water
0.60 0.57 0.60 0.61 0.60 0.57 0.56 0.57 0.54 0.54 0.54 0.54 0.52 0.52 0.53 0.53 0.52 0.52 0.52 0.50 0.51 0.50 0.49 0.49 0.48 0.48 0.48 0.47 0.46 0.46 0.46 0.47 0.50 0.51 0.50 0.49 0.50 0.49 0.48 0.47 0.47 0.50 0.56 0.58 0.61 0.63 0.67 0.67 0.68 0.69 0.72 0.75 0.81 0.85 0.84 0.89 0.95 0.93 0.94 0.98 0.94 0.90 0.85 0.80 0.76 0.84 0.97 1.09 1.21 1.29 1.38 1.45 1.42 1.44 1.40 1.40 1.38 1.35 1.37 1.33 1.23 1.09 0.98 0.96 0.99
0.58 0.57 0.59 0.60 0.59 0.58 0.58 0.58 0.56 0.55 0.55 0.55 0.53 0.53 0.53 0.53 0.52 0.52 0.50 0.50 0.51 0.50 0.50 0.49 0.49 0.49 0.48 0.47 0.47 0.47 0.46 0.47 0.49 0.50 0.50 0.49 0.49 0.50 0.48 0.46 0.44 0.46 0.50 0.53 0.57 0.60 0.62 0.64 0.65 0.69 0.73 0.72 0.74 0.75 0.82 0.82 0.78 0.78 0.84 0.88 0.91 0.94 0.96 0.86 0.79 0.80 0.84 0.99 1.03 1.19 1.28 1.38 1.33 1.40 1.37 1.36 1.35 1.37 1.34 1.33 1.31 1.19 1.05 0.95 0.95
0.59 0.59 0.58 0.58 0.59 0.60 0.60 0.58 0.56 0.55 0.54 0.54 0.54 0.54 0.54 0.54 0.54 0.52 0.51 0.52 0.53 0.53 0.52 0.51 0.50 0.49 0.47 0.47 0.48 0.48 0.48 0.47 0.48 0.49 0.50 0.50 0.50 0.50 0.51 0.49 0.46 0.43 0.43 0.46 0.51 0.56 0.58 0.60 0.64 0.68 0.71 0.71 0.72 0.75 0.78 0.78 0.78 0.73 0.71 0.76 0.82 0.91 0.96 0.96 0.90 0.86 0.89 0.92 1.00 1.02 1.13 1.27 1.29 1.28 1.36 1.36 1.35 1.37 1.34 1.31 1.27 1.21 1.10 1.01 0.97
0.61 0.60 0.59 0.59 0.60 0.60 0.59 0.58 0.56 0.55 0.54 0.55 0.54 0.55 0.55 0.54 0.54 0.53 0.52 0.52 0.52 0.53 0.52 0.51 0.49 0.47 0.47 0.46 0.46 0.47 0.48 0.48 0.48 0.49 0.50 0.51 0.51 0.52 0.52 0.51 0.50 0.46 0.44 0.43 0.44 0.49 0.54 0.56 0.60 0.67 0.69 0.70 0.72 0.74 0.75 0.77 0.75 0.73 0.74 0.80 0.88 0.91 0.97 1.02 1.03 0.94 0.93 0.91 0.98 0.99 1.04 1.10 1.20 1.28 1.32 1.33 1.28 1.32 1.34 1.33 1.28 1.22 1.13 1.09 1.04
0.62 0.59 0.59 0.59 0.60 0.60 0.59 0.58 0.56 0.55 0.55 0.54 0.54 0.54 0.54 0.54 0.54 0.53 0.52 0.52 0.53 0.52 0.51 0.51 0.49 0.47 0.45 0.45 0.45 0.46 0.47 0.48 0.48 0.49 0.50 0.52 0.53 0.54 0.53 0.53 0.53 0.52 0.50 0.47 0.45 0.44 0.48 0.53 0.56 0.61 0.66 0.66 0.69 0.73 0.76 0.73 0.74 0.75 0.75 0.81 0.84 0.89 0.98 1.03 1.06 1.06 0.99 0.95 0.99 1.05 1.04 1.05 1.12 1.19 1.22 1.20 1.19 1.24 1.30 1.30 1.26 1.19 1.16 1.16 1.09
0.64 0.59 0.58 0.58 0.59 0.59 0.60 0.58 0.55 0.54 0.54 0.54 0.54 0.54 0.55 0.54 0.53 0.53 0.54 0.52 0.51 0.50 0.49 0.48 0.47 0.46 0.45 0.45 0.45 0.46 0.47 0.48 0.48 0.48 0.49 0.51 0.54 0.55 0.55 0.55 0.55 0.55 0.55 0.54 0.51 0.47 0.45 0.47 0.54 0.58 0.61 0.62 0.62 0.67 0.72 0.75 0.77 0.77 0.75 0.83 0.94 1.01 1.03 1.05 1.07 1.08 1.08 1.03 1.01 0.98 1.01 0.95 0.99 1.06 1.11 1.13 1.10 1.11 1.20 1.26 1.25 1.20 1.15 1.13 1.09
0.61 0.57 0.57 0.59 0.59 0.59 0.59 0.57 0.54 0.54 0.54 0.55 0.56 0.55 0.54 0.54 0.52 0.52 0.53 0.51 0.49 0.48 0.48 0.46 0.46 0.46 0.46 0.46 0.46 0.46 0.47 0.48 0.48 0.50 0.51 0.52 0.54 0.55 0.55 0.55 0.55 0.56 0.56 0.56 0.56 0.55 0.51 0.47 0.48 0.54 0.58 0.62 0.64 0.62 0.64 0.70 0.76 0.79 0.82 0.81 0.88 0.99 1.07 1.11 1.07 1.06 1.15 1.12 1.09 1.05 1.02 1.00 0.94 0.92 1.05 1.07 1.07 1.08 1.12 1.13 1.13 1.16 1.16 1.13 1.05
0.57 0.56 0.57 0.58 0.59 0.60 0.60 0.58 0.55 0.54 0.56 0.57 0.55 0.54 0.53 0.53 0.51 0.51 0.51 0.49 0.48 0.47 0.45 0.45 0.46 0.46 0.46 0.47 0.47 0.48 0.47 0.47 0.48 0.49 0.50 0.51 0.52 0.52 0.54 0.54 0.54 0.55 0.55 0.56 0.57 0.57 0.57 0.54 0.50 0.49 0.54 0.60 0.64 0.66 0.66 0.62 0.67 0.73 0.83 0.87 0.87 0.88 0.88 0.94 1.07 1.09 1.05 1.07 1.09 1.11 1.07 0.95 0.94 0.91 0.95 0.97 0.96 0.97 1.03 1.07 1.06 1.10 1.12 1.14 1.11
0.56 0.55 0.56 0.56 0.57 0.60 0.59 0.58 0.57 0.56 0.56 0.54 0.53 0.51 0.51 0.52 0.51 0.50 0.49 0.48 0.47 0.47 0.47 0.46 0.46 0.46 0.47 0.47 0.47 0.48 0.47 0.47 0.48 0.49 0.50 0.52 0.53 0.52 0.52 0.53 0.53 0.52 0.53 0.55 0.56 0.57 0.58 0.58 0.57 0.52 0.49 0.53 0.60 0.64 0.67 0.68 0.65 0.62 0.71 0.84 0.88 0.88 0.88 0.92 0.96 0.99 1.05 1.05 1.04 1.13 1.11 1.01 0.93 0.80 0.75 0.84 0.86 0.90 1.00 1.08 1.11 1.13 1.13 1.07 1.04
0.55 0.54 0.54 0.55 0.57 0.57 0.55 0.54 0.54 0.55 0.54 0.52 0.51 0.51 0.51 0.51 0.50 0.49 0.48 0.48 0.47 0.46 0.46 0.46 0.46 0.46 0.46 0.46 0.46 0.46 0.46 0.47 0.48 0.49 0.51 0.51 0.51 0.52 0.52 0.52 0.52 0.53 0.53 0.53 0.54 0.54 0.56 0.57 0.58 0.58 0.55 0.51 0.52 0.57 0.61 0.64 0.65 0.64 0.62 0.68 0.78 0.84 0.88 0.86 0.86 0.89 0.95 0.98 1.03 1.06 1.12 1.07 1.00 0.87 0.75 0.78 0.89 0.96 0.97 1.00 1.01 1.07 1.06 1.01 0.97
0.53 0.53 0.54 0.56 0.56 0.54 0.52 0.53 0.54 0.53 0.52 0.51 0.51 0.50 0.50 0.50 0.50 0.49 0.48 0.47 0.46 0.46 0.46 0.45 0.45 0.46 0.45 0.45 0.44 0.45 0.46 0.48 0.49 0.50 0.50 0.51 0.51 0.51 0.50 0.50 0.51 0.50 0.50 0.50 0.50 0.52 0.54 0.56 0.57 0.58 0.58 0.57 0.53 0.49 0.54 0.58 0.60 0.62 0.62 0.62 0.68 0.77 0.79 0.84 0.89 0.92 0.93 0.96 0.95 0.94 0.96 1.01 1.01 1.01 0.98 0.87 0.84 0.85 0.92 0.99 1.00 1.01 0.97 0.93 0.87
0.53 0.53 0.55 0.55 0.54 0.52 0.52 0.53 0.53 0.52 0.51 0.49 0.49 0.49 0.50 0.49 0.48 0.47 0.47 0.45 0.46 0.46 0.46 0.45 0.45 0.45 0.44 0.43 0.43 0.44 0.46 0.48 0.49 0.50 0.51 0.51 0.51 0.51 0.51 0.50 0.50 0.50 0.50 0.49 0.50 0.50 0.51 0.52 0.54 0.57 0.58 0.58 0.60 0.57 0.52 0.52 0.55 0.58 0.60 0.61 0.62 0.67 0.77 0.79 0.80 0.87 0.96 0.99 0.93 0.86 0.84 0.86 0.97 1.03 1.02 0.98 0.87 0.82 0.89 0.94 0.96 0.96 0.96 0.94 0.92
0.54 0.53 0.53 0.53 0.52 0.53 0.53 0.53 0.51 0.50 0.49 0.49 0.49 0.49 0.49 0.48 0.47 0.46 0.45 0.46 0.46 0.45 0.45 0.45 0.44 0.44 0.43 0.41 0.42 0.45 0.46 0.49 0.49 0.50 0.50 0.50 0.51 0.51 0.50 0.50 0.50 0.49 0.49 0.49 0.49 0.50 0.50 0.50 0.50 0.52 0.55 0.58 0.60 0.60 0.61 0.57 0.55 0.55 0.57 0.58 0.59 0.61 0.64 0.70 0.77 0.80 0.84 0.93 1.02 0.99 0.88 0.86 0.95 1.01 1.08 1.04 1.01 0.90 0.87 0.92 0.96 0.96 0.98 0.96 0.95
0.53 0.53 0.51 0.51 0.51 0.52 0.53 0.51 0.49 0.48 0.48 0.48 0.48 0.48 0.47 0.47 0.46 0.46 0.46 0.46 0.45 0.45 0.44 0.44 0.44 0.43 0.42 0.43 0.43 0.45 0.46 0.48 0.49 0.49 0.49 0.50 0.50 0.50 0.49 0.49 0.50 0.49 0.49 0.50 0.49 0.49 0.49 0.49 0.48 0.48 0.50 0.53 0.56 0.59 0.61 0.61 0.59 0.57 0.58 0.57 0.56 0.57 0.59 0.62 0.68 0.73 0.79 0.84 0.93 1.01 1.08 1.04 0.98 1.04 1.10 1.11 1.02 0.92 0.89 0.89 0.97 0.98 0.97 0.97 0.98
0.52 0.52 0.50 0.50 0.52 0.53 0.51 0.49 0.47 0.47 0.48 0.48 0.48 0.47 0.47 0.46 0.45 0.45 0.45 0.44 0.43 0.43 0.43 0.42 0.42 0.42 0.43 0.44 0.44 0.44 0.46 0.48 0.48 0.48 0.48 0.49 0.50 0.50 0.50 0.50 0.49 0.48 0.49 0.49 0.49 0.49 0.49 0.49 0.48 0.47 0.49 0.51 0.52 0.54 0.59 0.62 0.64 0.62 0.61 0.61 0.61 0.59 0.59 0.60 0.61 0.66 0.72 0.77 0.85 0.95 1.10 1.19 1.09 1.10 1.16 1.17 1.11 1.01 0.95 0.97 1.00 1.00 1.02 1.03 0.96
0.51 0.51 0.51 0.51 0.51 0.51 0.50 0.48 0.47 0.46 0.46 0.47 0.47 0.47 0.47 0.46 0.44 0.44 0.43 0.43 0.44 0.44 0.44 0.44 0.42 0.41 0.42 0.43 0.43 0.43 0.45 0.47 0.47 0.47 0.48 0.48 0.49 0.49 0.49 0.49 0.48 0.48 0.49 0.49 0.49 0.49 0.49 0.49 0.47 0.47 0.47 0.48 0.50 0.52 0.55 0.59 0.61 0.64 0.67 0.68 0.66 0.65 0.64 0.64 0.67 0.69 0.72 0.76 0.80 0.86 0.96 1.08 1.17 1.15 1.14 1.13 1.14 1.13 1.07 1.08 1.04 1.00 0.99 0.94 0.90
0.50 0.51 0.51 0.52 0.50 0.50 0.49 0.47 0.46 0.45 0.46 0.46 0.46 0.46 0.46 0.46 0.44 0.43 0.41 0.41 0.42 0.43 0.42 0.41 0.40 0.41 0.43 0.43 0.43 0.42 0.43 0.45 0.46 0.47 0.47 0.48 0.48 0.48 0.48 0.48 0.48 0.47 0.47 0.49 0.49 0.49 0.50 0.49 0.49 0.48 0.47 0.47 0.49 0.51 0.52 0.56 0.58 0.59 0.62 0.66 0.69 0.67 0.64 0.66 0.70 0.73 0.74 0.76 0.79 0.84 0.90 0.97 1.10 1.21 1.18 1.17 1.16 1.17 1.15 1.05 0.98 0.99 0.92 0.87 0.87
0.51 0.50 0.51 0.52 0.51 0.48 0.47 0.46 0.45 0.46 0.47 0.46 0.46 0.46 0.46 0.44 0.42 0.41 0.39 0.41 0.41 0.42 0.41 0.40 0.41 0.43 0.43 0.42 0.42 0.42 0.43 0.45 0.45 0.46 0.47 0.47 0.48 0.47 0.47 0.47 0.47 0.47 0.48 0.49 0.50 0.50 0.50 0.50 0.50 0.49 0.48 0.47 0.50 0.51 0.51 0.52 0.54 0.57 0.60 0.63 0.64 0.65 0.67 0.70 0.72 0.77 0.81 0.81 0.81 0.81 0.86 0.93 1.00 1.09 1.18 1.19 1.17 1.17 1.12 1.03 1.04 0.99 0.91 0.89 0.85
0.48 0.46 0.47 0.49 0.47 0.44 0.44 0.44 0.44 0.44 0.44 0.44 0.45 0.44 0.42 0.41 0.39 0.39 0.41 0.42 0.41 0.40 0.39 0.40 0.41 0.43 0.43 0.43 0.43 0.43 0.43 0.44 0.45 0.46 0.47 0.48 0.48 0.48 0.48 0.48 0.47 0.47 0.49 0.49 0.52 0.52 0.52 0.52 0.51 0.51 0.50 0.50 0.50 0.51 0.52 0.53 0.52 0.54 0.59 0.63 0.63 0.62 0.66 0.71 0.71 0.76 0.80 0.82 0.84 0.87 0.86 0.91 0.95 0.96 1.02 1.14 1.19 1.20 1.19 1.16 1.11 1.03 0.94 0.88 0.87
0.48 0.48 0.47 0.46 0.45 0.43 0.42 0.42 0.44 0.45 0.44 0.43 0.42 0.40 0.39 0.37 0.37 0.39 0.40 0.40 0.38 0.38 0.40 0.41 0.41 0.42 0.44 0.44 0.44 0.44 0.44 0.44 0.46 0.47 0.47 0.48 0.49 0.50 0.51 0.50 0.48 0.50 0.51 0.52 0.52 0.53 0.54 0.54 0.54 0.53 0.52 0.52 0.52 0.52 0.53 0.55 0.54 0.54 0.58 0.61 0.64 0.64 0.72 0.73 0.75 0.80 0.84 0.84 0.87 0.90 0.87 0.87 0.91 0.94 0.95 1.05 1.15 1.19 1.19 1.17 1.08 1.07 1.02 0.93 0.89
0.48 0.46 0.45 0.43 0.41 0.39 0.39 0.39 0.39 0.38 0.38 0.38 0.39 0.38 0.39 0.37 0.36 0.37 0.38 0.37 0.37 0.39 0.40 0.41 0.42 0.44 0.45 0.45 0.45 0.46 0.46 0.46 0.47 0.48 0.49 0.50 0.52 0.53 0.53 0.54 0.55 0.55 0.55 0.56 0.56 0.55 0.55 0.56 0.56 0.56 0.55 0.54 0.54 0.54 0.55 0.56 0.55 0.54 0.56 0.58 0.62 0.70 0.77 0.77 0.79 0.83 0.85 0.87 0.88 0.91 0.92 0.89 0.87 0.87 0.86 0.91 1.08 1.18 1.20 1.17 1.12 1.12 1.10 1.04 0.96
0.47 0.44 0.41 0.40 0.38 0.36 0.37 0.37 0.37 0.38 0.39 0.39 0.39 0.38 0.38 0.37 0.36 0.36 0.36 0.36 0.37 0.38 0.40 0.42 0.43 0.44 0.46 0.47 0.47 0.47 0.48 0.48 0.48 0.50 0.52 0.54 0.55 0.57 0.57 0.59 0.62 0.62 0.60 0.60 0.60 0.60 0.60 0.60 0.59 0.60 0.59 0.57 0.57 0.56 0.57 0.57 0.57 0.55 0.53 0.58 0.64 0.70 0.71 0.75 0.80 0.85 0.85 0.85 0.86 0.88 0.90 0.89 0.85 0.82 0.80 0.83 0.92 1.09 1.16 1.17 1.18 1.15 1.14 1.14 1.09
0.45 0.43 0.40 0.38 0.37 0.38 0.38 0.38 0.37 0.37 0.37 0.37 0.36 0.33 0.33 0.33 0.33 0.34 0.35 0.36 0.36 0.37 0.39 0.42 0.43 0.43 0.45 0.47 0.48 0.48 0.50 0.51 0.52 0.53 0.55 0.57 0.59 0.61 0.63 0.64 0.66 0.67 0.64 0.63 0.63 0.64 0.65 0.64 0.64 0.63 0.61 0.60 0.59 0.58 0.58 0.58 0.58 0.56 0.54 0.57 0.65 0.69 0.70 0.70 0.74 0.79 0.82 0.83 0.84 0.84 0.88 0.88 0.86 0.82 0.79 0.78 0.85 1.01 1.13 1.13 1.14 1.13 1.14 1.13 1.13
0.43 0.39 0.38 0.38 0.39 0.37 0.35 0.34 0.33 0.33 0.33 0.32 0.30 0.30 0.33 0.35 0.35 0.35 0.35 0.34 0.35 0.36 0.39 0.41 0.42 0.43 0.44 0.46 0.48 0.51 0.53 0.54 0.55 0.56 0.58 0.60 0.62 0.64 0.65 0.66 0.66 0.66 0.66 0.64 0.66 0.66 0.66 0.66 0.66 0.65 0.63 0.62 0.61 0.59 0.60 0.60 0.60 0.59 0.58 0.59 0.65 0.69 0.70 0.69 0.71 0.76 0.80 0.81 0.82 0.84 0.87 0.89 0.88 0.86 0.82 0.82 0.88 0.98 1.06 1.11 1.11 1.12 1.10 1.10 1.11
0.39 0.39 0.39 0.38 0.36 0.34 0.33 0.31 0.31 0.31 0.31 0.32 0.32 0.33 0.34 0.33 0.31 0.31 0.33 0.33 0.33 0.36 0.39 0.42 0.43 0.44 0.45 0.47 0.49 0.52 0.53 0.55 0.57 0.60 0.62 0.63 0.64 0.65 0.66 0.67 0.67 0.67 0.65 0.66 0.67 0.67 0.68 0.69 0.68 0.67 0.65 0.64 0.62 0.61 0.62 0.63 0.63 0.63 0.62 0.61 0.65 0.69 0.68 0.68 0.70 0.75 0.77 0.79 0.82 0.85 0.87 0.90 0.91 0.90 0.89 0.90 0.93 0.97 0.98 1.01 1.07 1.10 1.11 1.10 1.10
0.41 0.39 0.37 0.35 0.35 0.32 0.30 0.31 0.31 0.33 0.34 0.34 0.34 0.34 0.33 0.32 0.31 0.30 0.30 0.30 0.33 0.35 0.38 0.42 0.45 0.46 0.47 0.49 0.50 0.52 0.55 0.57 0.59 0.61 0.63 0.63 0.64 0.65 0.67 0.68 0.68 0.68 0.67 0.67 0.68 0.68 0.68 0.68 0.68 0.67 0.65 0.64 0.62 0.63 0.64 0.65 0.66 0.66 0.65 0.65 0.65 0.67 0.69 0.69 0.70 0.73 0.76 0.80 0.83 0.84 0.86 0.90 0.92 0.92 0.89 0.86 0.83 0.86 0.88 0.93 1.01 1.05 1.07 1.04 1.01
0.40 0.37 0.36 0.36 0.33 0.31 0.31 0.31 0.32 0.34 0.33 0.34 0.34 0.32 0.32 0.33 0.31 0.30 0.30 0.29 0.29 0.34 0.39 0.43 0.46 0.47 0.49 0.50 0.52 0.54 0.56 0.58 0.59 0.60 0.61 0.62 0.64 0.66 0.67 0.67 0.69 0.69 0.68 0.68 0.68 0.68 0.68 0.68 0.68 0.67 0.65 0.64 0.64 0.66 0.67 0.69 0.69 0.68 0.66 0.65 0.66 0.69 0.71 0.70 0.71 0.75 0.79 0.82 0.83 0.85 0.88 0.91 0.93 0.89 0.85 0.81 0.78 0.78 0.81 0.87 0.93 0.97 1.02 1.02 0.99
0.39 0.38 0.36 0.35 0.32 0.32 0.32 0.31 0.32 0.33 0.33 0.33 0.33 0.32 0.32 0.32 0.30 0.29 0.29 0.29 0.28 0.31 0.39 0.44 0.47 0.49 0.50 0.51 0.53 0.54 0.56 0.58 0.58 0.59 0.61 0.63 0.65 0.67 0.67 0.68 0.68 0.68 0.68 0.69 0.69 0.70 0.70 0.70 0.69 0.67 0.66 0.64 0.64 0.64 0.64 0.65 0.66 0.67 0.66 0.67 0.68 0.71 0.73 0.74 0.77 0.81 0.84 0.86 0.86 0.87 0.88 0.89 0.86 0.84 0.81 0.79 0.79 0.78 0.80 0.83 0.87 0.93 0.99 0.98 0.92
0.39 0.37 0.36 0.33 0.34 0.34 0.33 0.33 0.33 0.32 0.32 0.32 0.32 0.32 0.32 0.31 0.29 0.28 0.30 0.31 0.31 0.33 0.39 0.46 0.50 0.53 0.53 0.53 0.52 0.53 0.55 0.55 0.59 0.63 0.64 0.65 0.66 0.66 0.67 0.68 0.69 0.70 0.72 0.72 0.71 0.72 0.71 0.69 0.66 0.65 0.64 0.62 0.61 0.61 0.61 0.63 0.65 0.68 0.69 0.69 0.68 0.70 0.71 0.71 0.72 0.76 0.81 0.83 0.82 0.83 0.83 0.84 0.83 0.81 0.78 0.76 0.75 0.77 0.81 0.85 0.88 0.92 0.95 0.95 0.92
0.39 0.37 0.36 0.36 0.36 0.35 0.34 0.34 0.34 0.33 0.32 0.31 0.31 0.33 0.35 0.31 0.29 0.27 0.29 0.31 0.34 0.35 0.42 0.48 0.53 0.55 0.54 0.56 0.57 0.54 0.54 0.58 0.62 0.63 0.65 0.66 0.68 0.68 0.69 0.70 0.71 0.73 0.75 0.76 0.74 0.70 0.69 0.67 0.67 0.65 0.63 0.61 0.59 0.59 0.59 0.60 0.65 0.66 0.67 0.69 0.68 0.68 0.69 0.71 0.76 0.80 0.83 0.84 0.84 0.83 0.81 0.80 0.77 0.76 0.74 0.73 0.74 0.77 0.84 0.86 0.86 0.90 0.89 0.89 0.89
0.38 0.39 0.38 0.38 0.36 0.37 0.36 0.36 0.36 0.34 0.33 0.32 0.34 0.32 0.31 0.32 0.31 0.30 0.30 0.31 0.33 0.33 0.41 0.51 0.55 0.57 0.56 0.55 0.58 0.60 0.60 0.61 0.62 0.63 0.64 0.66 0.67 0.69 0.70 0.71 0.72 0.74 0.77 0.78 0.75 0.72 0.70 0.68 0.67 0.66 0.64 0.64 0.62 0.62 0.62 0.61 0.63 0.66 0.66 0.66 0.66 0.66 0.69 0.72 0.78 0.82 0.83 0.82 0.83 0.83 0.82 0.78 0.74 0.72 0.70 0.71 0.73 0.78 0.82 0.83 0.82 0.80 0.81 0.86 0.85
0.39 0.39 0.38 0.38 0.38 0.39 0.38 0.38 0.37 0.34 0.34 0.35 0.33 0.32 0.30 0.26 0.29 0.29 0.31 0.31 0.32 0.31 0.39 0.49 0.54 0.56 0.56 0.57 0.57 0.58 0.59 0.60 0.61 0.62 0.63 0.65 0.67 0.69 0.70 0.71 0.72 0.74 0.77 0.79 0.75 0.74 0.72 0.70 0.68 0.67 0.67 0.66 0.66 0.67 0.66 0.65 0.65 0.66 0.65 0.63 0.61 0.63 0.66 0.70 0.78 0.81 0.82 0.82 0.81 0.80 0.78 0.75 0.72 0.70 0.70 0.71 0.74 0.77 0.78 0.77 0.74 0.75 0.80 0.82 0.83
0.40 0.39 0.40 0.38 0.38 0.39 0.39 0.38 0.39 0.38 0.37 0.36 0.34 0.33 0.29 0.26 0.24 0.24 0.29 0.32 0.30 0.29 0.35 0.46 0.52 0.55 0.56 0.58 0.58 0.58 0.58 0.59 0.61 0.62 0.63 0.65 0.67 0.69 0.70 0.71 0.72 0.74 0.76 0.75 0.74 0.73 0.73 0.71 0.70 0.70 0.70 0.69 0.70 0.70 0.69 0.69 0.68 0.67 0.67 0.66 0.65 0.66 0.70 0.76 0.81 0.82 0.83 0.83 0.82 0.79 0.77 0.74 0.72 0.71 0.71 0.72 0.73 0.72 0.72 0.73 0.78 0.79 0.79 0.78 0.76
0.41 0.36 0.36 0.38 0.39 0.40 0.40 0.40 0.40 0.41 0.39 0.38 0.37 0.33 0.31 0.28 0.24 0.23 0.25 0.27 0.28 0.28 0.34 0.42 0.49 0.54 0.56 0.57 0.58 0.58 0.59 0.60 0.61 0.62 0.64 0.65 0.67 0.68 0.69 0.70 0.72 0.74 0.74 0.72 0.73 0.73 0.74 0.73 0.72 0.70 0.71 0.71 0.72 0.71 0.71 0.71 0.71 0.70 0.69 0.70 0.71 0.73 0.76 0.78 0.79 0.80 0.81 0.81 0.80 0.78 0.75 0.72 0.71 0.71 0.70 0.69 0.69 0.69 0.73 0.78 0.78 0.76 0.71 0.66 0.63
0.40 0.38 0.39 0.41 0.41 0.42 0.43 0.43 0.43 0.43 0.41 0.39 0.37 0.34 0.33 0.30 0.26 0.23 0.25 0.27 0.26 0.26 0.31 0.37 0.44 0.52 0.54 0.56 0.57 0.58 0.59 0.59 0.61 0.62 0.63 0.65 0.66 0.67 0.68 0.67 0.66 0.69 0.71 0.72 0.73 0.73 0.73 0.73 0.72 0.72 0.71 0.70 0.70 0.71 0.70 0.71 0.72 0.71 0.71 0.72 0.73 0.75 0.76 0.77 0.78 0.79 0.79 0.79 0.78 0.75 0.72 0.70 0.71 0.72 0.71 0.68 0.63 0.60 0.62 0.66 0.68 0.65 0.61 0.59 0.58
0.42 0.42 0.42 0.42 0.44 0.43 0.43 0.43 0.44 0.43 0.40 0.39 0.38 0.36 0.34 0.31 0.27 0.23 0.26 0.28 0.28 0.28 0.31 0.35 0.40 0.48 0.54 0.56 0.57 0.58 0.59 0.59 0.60 0.61 0.61 0.63 0.65 0.66 0.63 0.63 0.64 0.65 0.67 0.69 0.70 0.71 0.73 0.73 0.74 0.73 0.73 0.71 0.71 0.70 0.71 0.71 0.71 0.72 0.73 0.73 0.74 0.76 0.77 0.77 0.78 0.78 0.79 0.79 0.76 0.73 0.70 0.69 0.70 0.70 0.68 0.65 0.66 0.64 0.60 0.56 0.56 0.58 0.59 0.59 0.61
0.42 0.42 0.43 0.44 0.44 0.44 0.44 0.44 0.44 0.44 0.41 0.40 0.39 0.36 0.32 0.28 0.24 0.24 0.27 0.27 0.27 0.30 0.33 0.36 0.38 0.42 0.50 0.54 0.56 0.57 0.59 0.59 0.59 0.60 0.60 0.61 0.62 0.64 0.63 0.63 0.62 0.64 0.65 0.66 0.68 0.69 0.70 0.71 0.73 0.74 0.74 0.72 0.71 0.70 0.71 0.70 0.71 0.71 0.72 0.73 0.75 0.75 0.77 0.78 0.79 0.78 0.77 0.73 0.71 0.70 0.69 0.68 0.69 0.68 0.66 0.60 0.58 0.59 0.58 0.60 0.61 0.61 0.61 0.61 0.62
0.43 0.43 0.44 0.45 0.44 0.45 0.46 0.45 0.45 0.44 0.43 0.41 0.39 0.36 0.30 0.23 0.22 0.26 0.27 0.25 0.26 0.29 0.32 0.35 0.37 0.38 0.44 0.50 0.55 0.56 0.58 0.58 0.58 0.58 0.59 0.60 0.61 0.61 0.62 0.62 0.62 0.62 0.63 0.65 0.67 0.68 0.69 0.70 0.72 0.72 0.73 0.74 0.73 0.72 0.71 0.71 0.72 0.72 0.71 0.72 0.72 0.73 0.74 0.75 0.75 0.74 0.72 0.71 0.70 0.69 0.68 0.67 0.66 0.64 0.60 0.56 0.55 0.57 0.59 0.59 0.59 0.59 0.60 0.61 0.61
0.44 0.45 0.44 0.44 0.45 0.46 0.47 0.47 0.47 0.47 0.45 0.43 0.39 0.36 0.28 0.24 0.26 0.26 0.27 0.26 0.26 0.29 0.31 0.33 0.36 0.38 0.42 0.49 0.53 0.56 0.56 0.54 0.54 0.54 0.56 0.58 0.59 0.60 0.61 0.62 0.62 0.62 0.63 0.64 0.66 0.67 0.68 0.68 0.70 0.71 0.72 0.72 0.73 0.73 0.72 0.71 0.72 0.71 0.71 0.70 0.71 0.71 0.71 0.71 0.71 0.70 0.69 0.69 0.67 0.67 0.66 0.65 0.63 0.60 0.55 0.53 0.54 0.56 0.56 0.57 0.57 0.56 0.57 0.57 0.56
0.46 0.46 0.47 0.48 0.48 0.48 0.49 0.50 0.49 0.48 0.46 0.43 0.39 0.33 0.25 0.27 0.27 0.25 0.27 0.26 0.26 0.28 0.29 0.29 0.33 0.38 0.41 0.45 0.50 0.53 0.52 0.52 0.53 0.54 0.55 0.56 0.57 0.58 0.59 0.59 0.59 0.59 0.60 0.61 0.63 0.64 0.66 0.67 0.68 0.69 0.70 0.70 0.72 0.73 0.73 0.72 0.71 0.71 0.70 0.69 0.69 0.68 0.68 0.68 0.68 0.68 0.68 0.68 0.67 0.65 0.63 0.61 0.59 0.55 0.53 0.52 0.54 0.57 0.56 0.55 0.54 0.55 0.59 0.59 0.56
0.47 0.48 0.49 0.50 0.49 0.50 0.51 0.52 0.52 0.50 0.47 0.43 0.38 0.33 0.29 0.28 0.25 0.26 0.27 0.27 0.28 0.29 0.29 0.29 0.32 0.37 0.40 0.42 0.47 0.52 0.52 0.52 0.53 0.54 0.55 0.55 0.56 0.57 0.57 0.58 0.59 0.60 0.61 0.61 0.62 0.63 0.64 0.65 0.66 0.67 0.68 0.69 0.70 0.71 0.72 0.71 0.71 0.70 0.69 0.69 0.68 0.67 0.67 0.66 0.65 0.66 0.67 0.66 0.65 0.63 0.61 0.57 0.55 0.54 0.56 0.58 0.58 0.58 0.58 0.59 0.61 0.61 0.60 0.57 0.55
0.51 0.51 0.51 0.51 0.53 0.52 0.52 0.53 0.49 0.49 0.46 0.41 0.37 0.34 0.31 0.30 0.28 0.29 0.28 0.28 0.30 0.31 0.30 0.29 0.30 0.35 0.38 0.40 0.43 0.49 0.51 0.53 0.54 0.54 0.55 0.55 0.55 0.55 0.57 0.58 0.59 0.59 0.59 0.60 0.61 0.61 0.62 0.63 0.64 0.65 0.66 0.67 0.68 0.69 0.70 0.69 0.68 0.68 0.69 0.69 0.68 0.67 0.65 0.64 0.63 0.65 0.65 0.63 0.61 0.59 0.59 0.57 0.58 0.60 0.60 0.59 0.58 0.60 0.62 0.63 0.62 0.60 0.57 0.55 0.54
0.52 0.52 0.53 0.52 0.52 0.51 0.51 0.50 0.49 0.46 0.43 0.41 0.39 0.35 0.34 0.32 0.30 0.31 0.30 0.30 0.31 0.32 0.32 0.31 0.30 0.32 0.35 0.38 0.41 0.45 0.49 0.51 0.52 0.54 0.55 0.54 0.54 0.55 0.55 0.55 0.55 0.57 0.58 0.59 0.61 0.62 0.62 0.63 0.63 0.64 0.65 0.65 0.65 0.66 0.66 0.65 0.66 0.66 0.65 0.64 0.63 0.61 0.61 0.61 0.60 0.61 0.65 0.65 0.61 0.59 0.59 0.57 0.57 0.59 0.62 0.65 0.66 0.66 0.64 0.62 0.60 0.57 0.55 0.55 0.54
0.52 0.50 0.50 0.51 0.51 0.52 0.52 0.50 0.47 0.46 0.46 0.42 0.40 0.37 0.35 0.34 0.33 0.31 0.30 0.31 0.31 0.32 0.34 0.35 0.35 0.32 0.33 0.36 0.39 0.41 0.44 0.48 0.50 0.52 0.54 0.54 0.54 0.54 0.55 0.57 0.58 0.57 0.56 0.58 0.59 0.61 0.61 0.61 0.63 0.64 0.65 0.65 0.65 0.63 0.64 0.64 0.63 0.62 0.61 0.59 0.58 0.59 0.60 0.61 0.63 0.64 0.65 0.64 0.61 0.60 0.59 0.59 0.61 0.62 0.64 0.65 0.64 0.63 0.61 0.59 0.56 0.54 0.54 0.54 0.52
0.47 0.45 0.43 0.45 0.46 0.47 0.47 0.47 0.47 0.46 0.46 0.42 0.38 0.37 0.37 0.36 0.34 0.34 0.33 0.32 0.33 0.33 0.34 0.35 0.37 0.36 0.34 0.34 0.36 0.38 0.40 0.44 0.47 0.49 0.52 0.54 0.55 0.55 0.56 0.58 0.58 0.58 0.56 0.55 0.58 0.59 0.59 0.62 0.63 0.63 0.63 0.63 0.63 0.62 0.61 0.60 0.60 0.59 0.58 0.57 0.56 0.57 0.58 0.59 0.61 0.64 0.64 0.61 0.58 0.57 0.57 0.56 0.56 0.56 0.59 0.61 0.60 0.59 0.56 0.53 0.52 0.53 0.52 0.51 0.49
0.46 0.44 0.43 0.44 0.44 0.44 0.44 0.43 0.43 0.43 0.42 0.39 0.39 0.38 0.38 0.38 0.37 0.37 0.36 0.35 0.35 0.35 0.35 0.36 0.37 0.38 0.37 0.34 0.34 0.36 0.37 0.40 0.44 0.47 0.49 0.52 0.55 0.56 0.57 0.58 0.58 0.59 0.57 0.55 0.55 0.56 0.58 0.61 0.61 0.62 0.62 0.63 0.64 0.64 0.64 0.61 0.63 0.63 0.64 0.64 0.63 0.60 0.60 0.61 0.62 0.61 0.60 0.58 0.56 0.56 0.57 0.58 0.57 0.56 0.56 0.56 0.54 0.52 0.51 0.52 0.53 0.52 0.50 0.48 0.47
0.44 0.42 0.40 0.41 0.41 0.41 0.42 0.43 0.43 0.42 0.41 0.40 0.39 0.39 0.39 0.39 0.40 0.40 0.40 0.39 0.39 0.38 0.36 0.36 0.36 0.37 0.38 0.37 0.34 0.34 0.35 0.37 0.39 0.44 0.46 0.48 0.53 0.56 0.57 0.58 0.58 0.59 0.59 0.59 0.56 0.54 0.55 0.58 0.60 0.61 0.62 0.62 0.63 0.64 0.64 0.64 0.65 0.65 0.65 0.65 0.64 0.64 0.64 0.63 0.62 0.62 0.61 0.61 0.61 0.60 0.58 0.56 0.55 0.54 0.53 0.53 0.52 0.53 0.53 0.53 0.51 0.50 0.48 0.46 0.44
0.39 0.40 0.39 0.41 0.41 0.41 0.41 0.43 0.44 0.43 0.43 0.44 0.42 0.43 0.43 0.43 0.43 0.43 0.42 0.41 0.41 0.40 0.41 0.37 0.35 0.37 0.38 0.38 0.38 0.36 0.35 0.35 0.36 0.39 0.43 0.45 0.48 0.52 0.56 0.57 0.58 0.58 0.59 0.59 0.60 0.60 0.59 0.59 0.60 0.61 0.61 0.61 0.62 0.62 0.62 0.63 0.63 0.63 0.63 0.64 0.64 0.64 0.64 0.64 0.64 0.64 0.63 0.62 0.61 0.60 0.59 0.56 0.54 0.53 0.52 0.52 0.52 0.53 0.52 0.50 0.49 0.47 0.44 0.43 0.41
0.38 0.37 0.37 0.37 0.39 0.40 0.41 0.42 0.43 0.44 0.42 0.43 0.43 0.42 0.43 0.44 0.43 0.43 0.43 0.44 0.44 0.44 0.42 0.40 0.37 0.36 0.37 0.38 0.39 0.39 0.37 0.34 0.32 0.34 0.39 0.42 0.45 0.48 0.52 0.55 0.58 0.58 0.58 0.58 0.59 0.60 0.60 0.61 0.61 0.62 0.61 0.61 0.62 0.61 0.61 0.61 0.60 0.61 0.61 0.61 0.61 0.61 0.61 0.61 0.61 0.62 0.62 0.62 0.61 0.60 0.58 0.55 0.53 0.52 0.52 0.53 0.53 0.52 0.49 0.47 0.44 0.43 0.41 0.40 0.39
0.37 0.38 0.37 0.37 0.37 0.38 0.40 0.41 0.42 0.43 0.42 0.41 0.39 0.39 0.40 0.41 0.41 0.42 0.42 0.44 0.44 0.44 0.44 0.43 0.41 0.39 0.37 0.37 0.38 0.39 0.39 0.37 0.33 0.31 0.33 0.37 0.41 0.44 0.47 0.50 0.54 0.57 0.58 0.58 0.58 0.59 0.60 0.60 0.61 0.61 0.61 0.61 0.61 0.61 0.61 0.61 0.60 0.60 0.60 0.61 0.60 0.60 0.59 0.58 0.57 0.57 0.57 0.57 0.58 0.57 0.56 0.55 0.54 0.54 0.53 0.53 0.51 0.48 0.45 0.42 0.40 0.38 0.37 0.37 0.37
0.36 0.36 0.37 0.37 0.37 0.38 0.38 0.38 0.39 0.40 0.40 0.39 0.37 0.37 0.37 0.38 0.39 0.41 0.42 0.43 0.44 0.45 0.45 0.45 0.44 0.43 0.41 0.39 0.39 0.39 0.39 0.39 0.38 0.33 0.31 0.32 0.36 0.40 0.43 0.45 0.47 0.51 0.55 0.58 0.58 0.58 0.59 0.59 0.59 0.60 0.60 0.60 0.61 0.61 0.61 0.62 0.62 0.62 0.62 0.62 0.61 0.61 0.61 0.60 0.59 0.58 0.57 0.57 0.59 0.59 0.58 0.56 0.55 0.54 0.53 0.50 0.47 0.43 0.40 0.38 0.36 0.35 0.35 0.34 0.34
Wind_Speed
25 25 25 25 25 25 25 25 26 26 27 27 27 28 28 28 28 29 29 29 30 30 30 31 31 31 31 32 32 32 32 32 32 32 32 33 33 34 34 35 36 36 36 36 37 37 37 37 37 37 38 39 40 40 40 40 41 42 42 42 43 42 42 41 40 38 38 37 38 38 36 35 34 33 32 31 31 31 31 32 33 34 34 34 34
26 26 25 26 26 26 26 26 26 27 27 28 28 29 29 29 30 30 30 30 31 31 31 31 32 32 32 33 33 33 33 33 33 33 33 34 34 34 35 35 36 37 37 37 38 38 38 38 38 37 38 39 39 40 40 41 41 42 42 42 43 43 43 43 41 40 39 38 39 39 38 37 36 33 31 30 30 31 32 32 32 33 34 34 34
26 26 26 26 26 26 27 27 27 27 28 29 29 30 30 30 30 31 31 31 31 31 32 32 32 33 33 33 33 33 34 34 34 34 34 34 35 35 35 36 36 37 38 38 39 39 40 40 39 38 38 39 39 39 40 41 41 42 42 42 43 43 43 43 43 41 40 39 39 39 39 39 38 35 33 31 30 29 31 32 33 33 33 34 34
26 25 25 26 26 26 27 27 28 28 29 29 30 30 30 30 31 31 31 31 32 32 32 33 33 34 34 34 34 35 35 35 35 35 35 35 36 36 36 36 37 37 38 39 39 40 41 41 41 40 39 40 40 39 39 40 41 41 42 42 43 43 43 43 44 43 42 40 40 40 40 40 39 38 36 34 32 30 30 31 32 33 33 33 33
25 25 26 26 26 26 27 27 28 28 29 29 30 30 30 31 31 31 31 32 32 33 33 34 34 35 35 35 35 36 36 36 36 36 36 37 37 37 37 37 37 38 38 39 40 40 41 42 42 42 41 41 41 40 40 40 41 41 42 42 42 43 43 43 43 43 43 42 40 40 41 41 41 40 39 36 34 32 31 30 31 32 33 32 32
25 25 26 26 26 26 27 27 28 28 28 29 29 30 30 31 31 32 32 33 33 34 35 35 36 36 36 36 36 37 37 37 37 38 38 38 38 38 38 38 38 38 38 39 39 40 41 42 43 43 43 43 42 42 41 40 40 41 42 42 42 42 42 42 42 43 43 43 42 41 41 42 42 42 40 38 36 34 33 32 31 31 32 32 32
26 25 25 25 25 25 26 26 27 27 28 28 29 29 30 31 31 32 33 34 35 35 36 37 37 37 37 37 37 37 37 38 38 39 39 39 39 39 39 39 39 39 39 39 39 40 41 42 43 44 44 44 43 43 43 42 41 40 41 42 42 42 42 42 43 42 42 42 42 42 42 42 43 43 42 41 39 38 37 35 32 31 32 33 33
26 25 25 25 25 25 25 25 26 26 26 27 28 29 30 30 31 32 33 34 35 36 37 37 37 37 37 37 37 37 38 38 38 39 39 39 39 39 39 40 39 39 40 40 40 40 41 42 43 44 44 44 44 44 43 43 43 42 40 40 42 42 42 42 43 43 42 42 42 42 42 43 43 43 43 42 40 39 39 37 34 32 32 33 34
25 25 25 25 24 24 24 24 25 25 26 27 28 28 29 30 31 32 34 35 35 36 36 36 37 37 37 37 37 38 38 38 39 39 40 40 40 40 40 40 40 40 40 40 40 41 41 42 42 43 44 45 45 45 45 44 44 44 42 41 40 41 42 42 43 43 43 42 42 41 42 43 43 43 43 42 41 39 38 37 36 34 33 33 34
25 25 24 24 24 24 24 24 24 25 26 27 27 28 29 30 31 32 34 34 35 35 36 36 36 37 37 37 38 38 38 39 39 40 40 41 41 41 42 42 42 42 41 41 41 41 41 42 42 43 44 45 45 46 47 46 46 46 46 44 42 41 41 41 42 43 43 43 43 43 42 42 43 43 43 43 41 40 39 38 37 35 34 33 33
25 24 24 24 24 23 24 24 24 25 25 26 27 28 29 30 31 32 33 34 34 35 35 36 36 37 37 38 38 38 39 39 39 40 41 41 42 43 44 44 44 44 44 44 43 43 43 42 42 43 43 44 44 45 47 48 48 48 48 48 47 45 43 42 42 42 43 44 44 45 45 45 44 43 42 42 41 41 40 39 38 37 36 35 34
24 24 24 23 23 23 23 23 24 24 25 26 27 28 29 31 32 33 33 34 34 35 35 36 37 37 37 38 38 38 39 39 40 40 41 42 42 43 44 45 45 45 45 45 45 45 45 44 44 43 43 43 43 44 45 46 47 48 49 49 49 49 48 46 44 43 43 44 45 46 47 46 45 44 43 41 40 40 40 39 39 38 38 37 36
23 23 23 23 23 23 23 23 23 24 25 26 28 29 30 31 32 33 34 34 35 35 35 36 37 37 37 38 38 38 38 39 39 40 41 42 43 43 44 45 46 46 47 47 47 47 46 46 46 45 45 44 43 43 44 45 45 47 48 49 50 51 51 50 49 47 45 45 45 46 47 47 46 46 45 42 40 40 41 40 40 39 39 38 38
22 22 22 22 22 22 22 22 23 24 25 27 28 29 30 31 32 33 34 34 35 35 36 36 37 37 37 38 38 38 38 39 39 40 41 42 43 44 45 46 47 47 48 48 48 48 48 48 47 47 47 46 45 44 44 44 44 45 46 48 49 50 51 52 52 51 49 48 47 47 46 46 47 46 45 43 42 42 42 42 41 40 39 38 37
22 22 22 22 22 21 21 22 23 24 25 27 29 30 31 32 33 33 34 34 35 35 36 36 37 37 37 38 38 38 38 39 40 41 42 43 44 44 45 46 47 48 49 50 50 50 50 50 50 49 48 48 48 47 45 44 44 45 45 47 48 48 49 50 51 52 51 50 50 49 47 46 47 46 45 44 44 43 42 42 42 40 38 37 36
21 21 21 21 21 21 22 22 23 25 26 28 29 30 31 32 33 33 34 34 35 36 36 36 37 37 38 38 38 39 39 40 41 41 42 43 44 44 45 47 48 49 49 50 50 51 51 51 52 51 51 50 49 49 48 47 46 46 46 45 46 47 47 48 48 50 51 51 51 50 50 48 47 46 46 45 44 43 41 41 41 40 38 37 35
21 21 21 21 21 22 22 23 24 26 27 28 29 30 31 32 33 34 34 35 35 35 36 36 37 38 38 38 39 40 40 41 41 42 43 44 44 45 46 47 49 49 50 50 50 51 51 52 52 52 52 52 50 50 51 50 49 48 47 46 45 46 46 46 46 47 48 50 51 51 51 50 48 46 46 45 44 43 41 41 42 41 40 38 36
21 22 22 22 22 22 23 24 25 27 27 28 29 30 31 32 33 34 34 34 34 35 36 36 37 37 38 38 39 40 41 41 42 43 43 44 45 46 47 48 49 50 51 51 51 51 52 52 53 53 53 52 51 51 51 51 51 50 48 47 46 45 44 44 44 44 45 46 48 49 50 50 49 48 47 46 45 44 42 42 42 42 41 40 37
22 21 21 21 21 22 23 24 26 27 28 29 30 31 32 33 33 33 33 34 35 35 35 36 36 37 37 38 39 40 41 41 42 43 43 45 46 47 48 49 50 50 51 51 51 52 52 52 53 53 53 53 53 52 52 51 52 51 49 47 47 45 44 43 42 42 42 43 44 46 47 48 48 48 47 47 45 44 43 42 42 41 41 41 38
20 19 19 20 21 22 23 25 26 27 28 29 30 31 32 33 33 33 32 33 34 34 34 35 36 37 37 38 39 40 41 41 42 43 44 45 45 46 47 48 49 49 49 50 50 50 51 51 51 52 53 53 53 53 53 53 53 52 50 48 47 44 42 42 42 42 41 41 42 43 45 47 47 47 47 47 45 43 42 42 41 41 40 39 39
18 18 19 20 21 22 23 24 26 27 29 30 31 31 32 32 32 32 32 32 33 33 34 35 36 37 37 38 39 39 40 41 41 42 43 44 44 45 45 45 45 46 47 47 48 48 48 48 48 49 50 51 52 52 52 53 53 53 52 51 48 45 42 40 41 41 40 40 40 41 43 45 46 46 46 47 46 42 39 39 41 41 40 39 38
18 18 19 19 20 22 23 25 27 28 30 30 30 31 31 31 30 31 31 31 31 32 33 34 35 36 36 37 38 38 39 40 41 42 43 43 43 43 42 42 42 43 43 44 44 45 45 46 46 47 47 48 49 49 50 51 52 52 53 52 50 48 44 41 40 40 39 39 39 40 41 43 45 45 45 46 46 43 39 37 38 40 41 40 38
18 18 18 19 20 21 23 25 27 29 29 29 29 30 29 29 29 29 29 29 30 31 32 33 34 36 36 37 37 38 39 40 41 41 42 41 41 40 39 40 40 40 40 41 41 42 43 43 44 45 45 45 46 47 48 49 49 50 51 52 51 49 46 43 41 40 39 38 38 39 40 41 43 44 45 45 45 44 41 38 37 38 39 39 38
17 17 17 18 19 21 23 25 27 27 27 28 28 28 27 27 27 27 27 28 29 31 32 33 34 35 36 37 37 38 39 39 39 39 38 37 37 36 37 37 37 38 38 39 39 40 41 41 41 42 43 44 44 45 46 46 47 47 48 50 50 49 46 44 41 40 38 37 38 38 39 40 41 42 43 44 44 44 42 39 37 37 37 38 37
16 16 17 18 19 21 23 24 25 26 26 26 27 26 25 25 25 26 27 28 30 31 32 33 34 35 36 36 36 37 37 37 36 35 34 34 34 35 35 35 35 36 36 35 36 37 38 38 39 39 40 41 42 42 43 44 45 45 45 47 48 48 46 44 41 39 38 37 37 37 38 39 39 40 41 42 43 43 42 40 38 36 35 35 35
15 15 16 17 19 21 22 23 24 25 24 24 24 24 24 24 24 25 26 28 29 30 31 32 33 34 35 35 36 36 34 33 32 31 32 32 32 33 34 33 33 34 33 33 33 33 34 35 35 36 37 38 39 39 40 41 42 44 44 45 46 46 46 44 41 38 37 36 36 36 36 37 38 38 39 40 41 42 42 41 38 36 35 35 34
14 15 16 17 18 20 21 22 23 22 22 23 23 23 23 23 23 24 26 27 28 29 30 31 32 33 34 35 34 33 31 30 30 30 30 29 30 31 31 31 30 30 29 28 28 29 30 31 32 32 33 35 35 36 37 38 39 41 42 42 43 44 44 42 40 38 37 36 35 34 34 35 36 37 38 39 39 40 41 40 38 36 35 34 33
14 15 15 16 17 19 20 21 20 20 21 22 22 22 22 23 23 24 25 25 26 27 29 31 32 32 33 33 32 30 29 29 29 29 28 28 28 29 29 28 27 25 24 24 24 25 26 28 29 29 30 31 32 33 34 35 36 38 40 40 41 42 42 40 38 37 36 35 35 34 33 34 34 35 36 37 37 38 39 38 37 35 34 33 31
14 14 15 15 15 17 19 19 19 20 20 20 21 22 22 23 23 23 23 23 24 26 29 31 31 31 31 31 30 29 28 28 29 29 28 28 28 28 27 25 24 23 22 22 23 23 23 24 26 26 27 28 29 30 30 31 33 36 37 38 39 40 39 38 37 36 35 35 34 33 33 33 33 34 35 35 36 37 37 36 35 35 33 31 29
13 13 14 14 15 17 18 18 18 19 19 20 21 22 22 22 22 21 21 21 23 26 29 30 30 30 30 30 29 28 27 28 29 28 28 27 27 26 25 23 21 20 20 21 21 20 20 21 23 24 24 25 26 27 28 29 31 33 35 36 37 38 38 37 36 35 35 34 33 32 32 32 32 33 33 34 34 35 35 35 35 35 33 30 28
12 12 12 13 14 16 16 17 17 17 18 19 20 21 22 21 21 20 20 20 23 26 28 29 29 29 29 29 29 27 26 26 27 27 26 26 25 24 23 21 18 18 17 17 17 17 17 19 21 22 23 24 25 26 26 27 29 30 32 34 35 36 37 36 35 35 34 33 32 31 30 30 31 32 33 33 34 33 33 34 34 34 32 30 28
11 11 12 13 14 15 16 16 17 17 18 19 20 21 22 22 20 20 20 20 23 26 28 29 29 30 29 28 27 26 25 25 25 25 25 24 22 21 20 18 16 15 14 13 13 14 15 17 19 21 23 24 24 25 25 26 27 29 30 32 34 35 35 35 35 34 34 33 32 31 30 30 30 32 33 33 33 33 33 33 32 32 31 30 28
9 10 12 13 14 15 15 16 16 17 18 19 20 21 22 22 21 20 19 20 23 26 27 28 29 30 29 27 26 25 24 24 24 24 23 22 20 18 18 16 13 12 10 10 11 13 14 16 18 20 22 23 24 24 25 25 27 28 30 31 32 33 33 34 34 34 34 33 32 31 30 30 30 31 32 33 33 33 33 32 31 30 30 29 28
9 10 11 12 13 14 14 15 16 17 17 18 20 22 22 21 21 20 20 20 23 25 26 27 29 29 28 27 25 24 23 23 23 22 21 20 18 16 15 14 11 10 9 9 10 11 13 15 17 18 19 21 22 23 24 25 26 28 29 30 31 32 32 32 33 33 33 33 32 31 31 30 31 31 32 33 33 33 32 32 31 30 30 30 29
9 10 11 12 13 13 14 15 16 16 17 19 21 22 21 20 20 20 20 20 22 24 25 27 28 28 27 26 25 23 22 22 22 21 19 17 16 14 12 11 10 9 9 9 10 10 11 13 16 17 18 19 21 22 23 24 25 27 28 30 31 31 32 32 32 31 31 32 32 31 31 31 31 32 32 33 33 33 33 32 31 30 30 29 28
9 10 11 12 13 14 15 15 15 16 18 20 20 21 21 20 20 20 20 20 21 23 24 25 27 27 26 26 25 24 22 21 21 19 17 15 14 12 11 10 9 8 8 9 10 11 11 12 14 16 18 19 20 21 22 22 24 25 27 29 30 31 31 31 31 31 30 30 30 30 31 31 31 32 32 33 33 33 33 32 31 30 29 27 26
10 11 11 12 13 15 16 15 15 17 19 19 19 20 20 20 20 19 19 20 21 22 22 24 26 26 26 26 25 24 22 20 19 17 15 14 12 10 9 8 7 7 7 8 9 11 12 12 13 15 17 18 19 20 21 22 23 24 25 27 28 29 29 29 29 29 29 29 29 30 30 30 31 31 32 32 32 33 32 31 30 29 27 26 26
10 11 11 12 13 14 15 15 15 17 18 18 18 19 19 19 19 19 18 20 21 20 21 23 24 24 25 25 25 24 21 19 17 17 15 13 11 10 8 7 6 6 6 7 8 10 12 12 13 14 16 17 18 19 21 22 22 23 24 25 26 27 28 28 28 28 28 28 28 29 29 29 29 30 30 31 32 32 31 30 29 28 27 27 27
9 10 11 12 13 14 14 14 15 16 17 17 17 18 18 19 19 18 18 19 20 20 20 22 23 23 24 25 24 23 21 19 17 16 15 12 10 8 7 6 6 5 5 5 7 8 10 12 13 14 15 17 18 19 20 21 22 22 23 24 25 25 26 27 27 27 27 27 27 27 28 28 28 28 30 31 32 31 30 28 28 27 27 27 27
10 11 13 14 14 13 13 13 13 14 16 16 16 17 18 18 18 17 17 18 19 19 19 21 22 22 22 24 23 22 22 20 18 16 14 12 9 7 6 5 5 4 4 5 6 8 9 11 12 13 15 16 17 18 20 21 22 22 23 24 24 25 25 26 26 26 26 26 26 26 26 27 27 28 30 31 31 30 29 27 26 26 26 27 27
12 13 13 13 13 12 12 12 12 13 14 14 14 16 17 17 17 17 17 18 18 18 19 20 20 20 21 22 23 22 22 21 18 15 14 12 10 8 6 4 3 2 2 2 4 6 8 9 11 12 13 14 16 17 18 19 20 21 22 23 23 24 24 25 25 26 25 25 26 26 26 26 27 29 30 30 29 28 27 25 25 25 26 26 26
11 12 12 12 11 11 10 10 10 11 12 13 13 15 16 15 16 17 18 17 17 18 19 19 19 20 20 21 22 22 22 21 18 15 13 12 11 10 8 6 4 3 2 0 2 4 6 7 9 11 12 13 14 16 17 18 19 21 21 22 23 23 24 24 25 25 25 25 25 26 27 27 28 29 29 29 28 26 25 25 25 26 26 25 24
9 10 10 10 9 9 8 8 9 10 11 12 13 14 14 15 15 16 17 16 15 16 18 19 19 19 19 20 20 21 21 20 19 16 14 12 11 10 9 8 6 5 4 3 3 5 6 8 9 10 11 13 15 16 17 18 19 20 21 22 22 23 23 23 23 24 25 25 25 26 27 28 29 29 29 27 26 25 25 25 26 26 25 23 22
8 8 9 8 8 8 8 8 9 10 11 12 12 12 13 14 15 16 17 16 14 15 17 18 19 19 19 18 19 20 20 19 19 17 16 13 11 10 10 9 7 7 6 6 6 7 8 9 10 10 11 13 15 16 17 18 19 20 21 21 21 22 22 22 22 23 26 27 26 26 27 28 28 29 28 26 25 24 25 25 25 25 23 21 20
7 7 7 7 7 7 7 7 8 9 9 10 11 12 13 14 14 15 17 16 15 14 16 17 19 19 19 18 18 18 18 18 18 18 17 15 12 11 11 10 8 7 7 7 8 9 10 10 10 10 11 12 14 15 16 17 18 19 20 20 20 21 22 23 23 24 25 26 25 26 27 28 28 28 28 26 24 24 24 24 24 22 21 20 19
7 7 8 7 7 7 7 7 8 9 8 9 11 12 12 14 15 15 16 17 16 15 15 16 18 19 18 18 18 17 17 17 17 18 18 17 14 13 12 12 10 9 8 8 8 9 10 11 11 11 12 13 15 16 16 17 18 18 19 20 20 21 22 23 23 23 24 24 25 26 26 27 26 26 26 25 25 25 24 23 22 21 20 19 18
7 7 8 8 8 8 7 7 8 8 8 9 10 11 12 13 15 15 16 17 17 16 15 15 16 17 18 18 17 17 17 17 17 17 17 17 16 15 14 13 12 11 10 9 9 10 11 11 11 12 13 13 15 16 16 17 18 18 18 19 20 21 22 23 23 23 24 24 24 25 25 25 24 25 25 25 25 25 23 22 21 20 19 18 17
7 7 7 8 9 9 9 8 8 9 9 9 10 11 12 13 14 15 16 16 17 17 16 15 15 16 17 17 17 17 17 16 16 15 15 16 16 16 15 14 13 12 11 10 10 10 10 10 10 11 12 12 14 15 15 16 16 17 17 18 19 19 21 22 22 22 23 22 23 23 23 23 24 24 24 24 24 23 22 21 20 20 18 17 16
7 6 7 8 8 9 9 9 9 9 9 9 10 10 11 12 13 14 16 16 17 17 17 16 15 15 16 16 16 16 16 16 15 14 14 14 15 15 15 15 14 13 12 11 10 10 10 9 10 10 11 12 13 14 15 15 15 15 16 16 17 18 19 20 20 21 21 21 21 22 23 24 24 24 24 23 23 22 22 21 20 19 18 17 16
6 6 7 7 8 8 9 9 9 8 9 9 9 10 10 11 13 14 15 16 16 17 17 16 16 15 16 16 16 15 15 16 16 15 14 13 13 14 14 15 15 14 13 12 11 11 10 10 10 11 12 12 13 14 14 15 15 15 15 16 17 17 18 19 19 20 21 22 22 23 23 24 24 24 23 22 22 21 21 20 19 18 17 16 15
6 6 6 7 8 8 8 9 9 9 9 9 9 9 10 11 12 13 14 15 15 16 15 15 15 15 15 15 15 15 14 14 15 15 14 13 12 12 13 14 15 15 14 13 13 12 12 11 11 11 12 13 13 14 14 14 14 14 15 15 16 17 17 18 19 21 22 22 23 23 24 24 24 23 22 21 21 20 20 19 18 17 16 15 14
Wind_Direction
257 260 261 262 263 263 263 263 263 263 263 263 264 266 267 269 270 272 274 275 276 277 277 278 278 278 278 278 278 278 276 274 272 271 270 269 268 268 266 265 263 261 261 260 258 258 258 258 257 255 254 253 252 251 249 248 247 247 248 248 248 248 248 249 250 248 246 246 245 245 249 250 249 249 248 246 245 246 246 246 244 241 240 240 240
258 261 262 262 263 264 264 264 264 264 264 264 266 267 269 270 272 273 275 276 277 277 278 278 278 278 278 278 277 277 276 274 273 272 271 270 269 268 267 266 264 262 260 259 258 257 257 257 257 256 254 253 252 251 250 249 248 248 247 248 248 248 247 248 248 248 246 245 245 246 247 247 245 245 245 244 245 247 246 246 245 243 241 239 239
259 261 261 262 264 264 265 265 265 265 265 266 267 268 270 271 273 274 275 276 277 277 278 278 278 278 278 277 276 276 275 274 273 272 271 270 269 268 267 266 264 263 261 259 258 257 256 255 255 255 255 254 253 252 251 250 249 249 248 247 248 248 247 247 246 246 245 245 245 244 245 244 242 242 242 243 246 247 246 246 244 243 243 241 240
257 259 261 262 263 264 265 265 265 266 266 267 268 269 271 272 273 275 276 277 277 277 278 278 278 278 278 277 276 275 274 273 272 272 271 270 269 268 267 266 265 263 261 260 258 257 256 255 254 254 254 254 254 253 252 250 250 249 248 248 248 248 248 246 245 245 245 245 244 243 243 242 240 241 240 241 245 247 247 247 244 243 244 242 241
256 259 260 261 263 264 265 266 266 266 267 269 270 270 272 273 274 275 276 277 278 278 278 278 278 278 277 277 276 275 274 273 272 271 270 270 269 268 267 266 265 263 262 260 259 257 256 255 253 253 252 253 253 252 252 251 250 249 249 248 248 248 248 246 245 244 244 243 243 243 242 241 240 240 239 239 243 245 246 247 246 244 243 243 243
257 260 261 261 263 265 266 267 267 267 268 269 271 271 273 274 275 276 277 278 278 278 279 278 278 278 277 277 276 275 274 273 272 271 270 270 269 268 267 266 264 264 262 261 259 257 256 255 254 252 251 252 252 251 251 251 250 249 249 249 248 248 247 246 245 244 243 242 242 242 241 241 240 239 238 238 241 242 244 245 247 247 244 243 244
258 260 261 262 264 265 266 267 268 269 269 271 272 273 274 275 276 277 277 278 279 279 279 279 279 278 278 277 276 275 274 273 272 271 270 269 268 267 266 265 264 263 262 261 260 258 257 256 254 253 251 251 251 251 250 250 250 250 249 249 249 248 246 246 246 245 242 242 242 241 239 240 240 240 239 239 241 242 243 243 245 246 244 243 244
257 260 261 262 264 265 267 268 269 271 271 272 273 274 275 276 277 278 278 279 280 280 280 279 279 278 277 276 275 274 274 273 272 271 270 269 268 267 266 265 264 263 262 261 260 259 258 256 255 254 252 251 250 250 250 249 249 250 249 249 249 248 247 246 245 244 242 242 242 241 239 239 240 240 239 239 239 241 242 243 243 243 243 243 244
256 258 260 262 264 266 268 269 270 271 272 273 275 276 277 277 278 279 280 280 280 280 280 279 279 278 277 276 275 274 273 272 271 271 270 269 267 266 265 265 264 263 262 261 260 259 258 257 256 254 253 252 250 250 249 249 249 249 248 249 249 249 248 246 244 243 242 241 240 240 240 239 238 238 238 237 238 240 240 240 241 242 243 244 244
254 257 260 262 265 267 268 270 271 273 274 276 277 278 278 279 279 280 281 281 281 281 280 280 279 279 278 277 276 275 273 273 272 271 270 269 268 266 265 265 264 263 262 261 260 259 258 257 256 255 254 253 252 250 249 249 248 248 248 248 248 248 248 247 245 243 242 241 239 239 239 239 238 237 237 236 237 238 238 238 239 240 241 243 245
253 256 259 261 264 266 268 270 272 275 277 278 279 279 279 280 280 281 282 282 282 282 282 281 280 280 279 278 277 275 274 273 273 271 270 269 268 267 266 265 264 263 262 261 260 259 257 256 256 255 254 254 253 252 250 249 248 248 248 247 247 247 247 248 247 244 242 241 240 238 238 239 238 238 237 236 235 236 236 237 237 238 239 242 245
252 255 258 260 263 265 268 270 273 275 277 279 280 280 281 281 282 283 283 283 283 283 283 283 282 281 280 279 277 276 275 274 274 273 272 270 269 268 267 266 265 263 262 261 260 259 257 256 255 254 254 254 253 252 251 250 249 248 247 247 246 246 245 246 246 245 243 242 241 239 238 238 238 237 236 235 235 235 235 236 237 237 239 242 245
252 253 257 260 262 265 268 270 274 276 278 280 280 282 282 282 283 284 285 285 285 284 284 284 283 282 281 280 278 277 276 275 275 274 273 271 270 269 267 266 265 264 262 261 260 258 257 256 255 254 253 253 253 252 252 251 250 249 248 247 247 246 245 245 245 245 244 244 242 240 239 237 236 235 235 235 235 234 233 235 237 238 240 242 245
252 253 256 260 262 265 268 271 275 278 280 281 282 283 283 284 285 285 286 286 286 286 286 285 284 283 281 280 279 278 277 276 276 275 274 273 271 270 268 267 265 264 263 261 260 259 257 256 255 253 252 251 251 251 252 252 251 250 249 247 247 246 246 245 244 244 244 243 242 242 240 237 235 235 235 235 235 234 234 235 236 238 240 242 244
252 253 257 260 263 266 269 273 277 280 282 283 284 284 285 286 287 287 288 288 288 288 287 286 284 283 282 281 280 279 278 277 276 275 275 274 273 271 270 268 267 265 264 262 261 259 258 256 254 253 252 251 250 250 251 251 251 251 250 248 247 246 246 245 244 243 243 242 241 241 241 239 236 235 235 235 235 236 236 236 237 238 239 240 241
252 254 258 261 265 269 272 275 278 282 284 286 286 287 287 288 289 290 290 290 290 289 288 286 285 284 283 282 281 279 279 278 277 276 275 274 273 272 271 269 268 266 265 263 262 260 258 256 255 253 252 250 249 249 249 250 251 251 251 250 248 246 245 245 245 243 242 241 240 239 239 239 237 235 234 234 235 235 235 235 235 236 236 236 237
253 255 258 262 266 272 275 277 279 283 286 288 289 290 290 291 293 293 293 293 292 290 288 287 286 285 284 283 282 281 280 279 279 278 277 276 274 273 271 270 269 267 265 264 262 260 259 257 255 253 251 250 249 249 249 249 249 250 250 250 249 247 245 244 245 244 242 240 239 238 237 237 235 233 232 232 233 233 233 233 233 234 234 234 236
252 255 258 262 268 273 277 279 281 285 289 291 293 293 294 294 295 295 294 294 293 291 290 289 287 286 285 285 284 283 282 281 281 280 278 277 276 274 273 271 270 268 266 265 263 261 259 257 255 253 251 250 249 248 249 248 247 248 248 249 249 248 246 244 243 243 242 240 238 237 235 234 233 232 231 231 231 232 232 232 232 232 232 233 235
253 255 258 263 270 276 279 282 285 288 291 293 294 295 296 296 296 295 294 294 293 292 291 290 289 288 287 287 286 285 284 283 283 282 281 280 278 277 274 272 270 269 267 265 263 261 259 257 254 252 251 250 248 248 248 248 246 245 246 247 247 247 246 243 242 241 240 238 237 236 233 232 232 231 230 229 230 232 233 233 232 231 232 233 233
251 254 259 266 273 279 282 284 287 290 292 295 295 296 296 296 296 295 295 295 294 293 292 291 290 290 289 289 288 287 286 286 285 284 284 283 281 279 276 273 271 269 267 265 263 261 259 257 254 252 250 249 248 247 247 247 245 243 243 244 244 244 244 243 241 239 238 237 235 234 232 231 230 230 228 227 229 231 233 233 232 231 232 232 233
248 256 263 270 276 280 283 287 289 292 293 295 295 295 296 296 296 297 297 296 295 294 294 293 293 292 291 291 290 289 288 288 287 286 286 285 284 281 278 274 271 269 267 264 262 260 258 256 254 252 250 248 247 246 246 246 245 242 240 240 240 241 242 241 239 237 236 235 234 232 231 229 228 228 227 226 226 229 232 232 231 231 232 234 235
251 260 267 272 277 282 285 289 291 293 295 295 295 296 296 297 297 298 298 297 296 296 296 296 295 294 293 293 292 292 291 290 289 288 287 286 285 282 279 275 272 270 267 265 262 260 258 256 254 252 250 247 246 245 245 244 243 241 238 237 237 238 239 239 237 234 233 233 232 231 229 228 226 226 226 225 225 228 231 231 231 232 234 236 237
256 262 267 273 279 283 287 291 294 295 296 296 296 297 297 297 298 299 298 297 297 298 298 299 298 297 296 295 295 294 293 292 291 290 289 287 286 283 279 276 273 271 268 265 262 260 258 256 254 251 249 246 245 244 243 242 241 239 236 234 234 234 236 236 235 232 231 231 231 229 228 227 226 225 225 225 225 226 229 230 231 233 235 236 237
256 261 267 274 280 285 290 294 297 298 297 297 297 297 297 298 299 300 299 299 299 300 300 301 301 301 299 298 297 296 295 293 292 292 290 288 287 285 283 279 275 272 270 266 263 260 257 255 252 250 247 245 243 242 240 238 238 237 234 232 230 231 232 233 232 229 228 229 229 228 227 226 225 225 225 225 225 225 227 230 232 234 234 235 237
256 262 270 276 283 289 293 297 299 299 298 298 299 298 299 301 302 302 301 301 302 302 303 304 304 304 303 302 300 299 297 295 294 293 290 288 288 288 287 283 279 275 272 268 263 259 256 253 251 248 245 242 240 238 236 234 234 233 231 229 227 227 229 229 228 226 225 226 227 227 226 226 225 224 224 224 224 225 226 229 231 233 233 234 236
257 266 273 280 287 292 296 299 300 299 299 301 302 302 303 304 305 305 304 304 305 306 307 307 307 307 306 305 303 301 299 297 295 294 292 290 290 290 289 286 282 277 272 267 262 258 254 252 249 246 242 238 236 234 233 232 232 230 228 226 225 225 225 225 224 223 223 224 225 226 226 225 224 223 224 224 224 225 225 227 229 231 232 233 234
261 270 277 284 291 295 298 299 300 301 303 305 306 306 306 305 306 307 306 307 309 310 310 310 310 310 309 308 306 304 301 299 298 297 295 294 293 293 293 290 285 278 270 263 259 255 253 249 246 242 238 235 233 232 232 231 230 227 225 223 222 222 222 221 221 221 222 222 223 224 224 223 223 223 223 223 223 224 224 225 226 228 230 231 231
265 272 279 287 294 299 301 300 301 304 306 307 308 309 309 308 308 308 308 309 311 313 314 314 314 313 312 311 308 305 302 301 301 300 299 297 297 297 296 294 287 278 268 260 256 255 252 246 240 236 233 231 231 230 230 229 226 223 221 219 218 218 218 218 218 219 219 220 220 222 222 222 221 222 222 222 222 221 222 222 222 223 224 226 228
269 274 280 288 297 303 304 304 305 308 309 310 312 313 313 313 312 311 311 311 313 316 319 319 318 317 315 313 311 307 303 303 303 302 301 300 299 299 299 295 288 277 266 260 258 256 249 240 232 229 227 226 226 226 226 224 220 218 216 215 214 214 214 215 216 216 217 217 218 219 220 220 220 221 221 220 219 219 218 218 218 218 220 222 225
267 273 281 291 301 305 305 306 309 310 311 314 317 318 317 317 315 314 314 314 317 321 323 322 321 320 318 316 313 309 305 304 305 304 302 302 302 301 300 296 287 276 266 259 256 251 242 231 224 221 220 219 219 219 220 218 215 213 213 212 211 211 212 213 214 215 215 216 216 218 218 218 218 219 219 218 217 216 215 214 214 216 217 219 221
265 273 284 294 299 303 307 309 311 313 316 318 321 323 322 319 317 316 316 318 321 325 326 325 324 324 322 319 316 313 309 308 308 307 306 304 303 303 301 297 288 279 268 256 246 239 231 223 218 215 214 213 213 214 216 214 212 210 210 210 210 211 211 212 213 213 213 213 215 216 217 217 218 218 216 215 214 213 212 212 214 216 217 218 219
268 279 290 296 297 301 308 310 311 315 320 322 323 325 324 322 321 318 317 319 324 328 330 329 329 328 327 324 320 316 314 312 311 310 309 307 304 303 302 297 288 282 272 252 234 226 222 218 215 212 211 212 213 213 214 214 211 210 208 208 208 209 211 211 211 211 211 212 214 215 216 217 217 216 215 213 212 211 211 212 214 215 215 216 218
277 286 294 298 299 302 308 312 313 316 320 323 325 326 325 326 325 321 318 321 327 331 332 332 331 332 332 329 325 321 318 316 315 313 312 309 304 303 302 297 288 279 269 251 234 224 219 217 215 213 213 213 214 214 214 213 210 208 207 207 207 208 210 210 210 210 211 213 214 215 216 216 216 215 213 211 210 210 210 210 211 211 213 215 218
278 284 291 296 299 303 309 315 318 321 323 325 327 327 327 328 327 324 322 325 329 332 334 334 335 336 336 334 331 326 323 321 319 317 315 312 307 303 301 297 287 271 257 246 238 229 220 215 214 214 214 214 213 213 212 210 208 206 205 206 206 207 207 208 209 211 212 213 214 215 215 215 215 213 211 210 209 210 209 208 209 211 213 216 219
272 277 284 293 300 305 311 316 321 325 326 326 327 328 328 329 329 326 325 328 331 333 335 337 338 340 339 338 336 332 328 326 324 322 319 316 311 305 300 296 287 270 251 240 234 228 220 213 210 210 212 212 210 209 208 207 206 206 205 205 205 206 206 207 209 211 212 213 214 215 215 214 213 212 210 209 208 208 208 208 210 212 213 215 217
274 279 286 294 303 309 313 315 319 323 324 325 328 329 329 330 329 327 328 331 332 333 336 339 340 342 342 342 341 339 335 333 333 331 327 323 317 309 299 294 288 274 255 240 229 222 220 218 214 210 209 209 208 207 205 204 205 205 205 205 205 206 207 207 208 209 211 212 213 213 213 213 211 210 209 208 206 206 206 207 208 211 212 212 212
277 285 292 299 304 309 312 313 316 320 322 325 329 332 333 333 331 329 333 335 333 334 338 340 342 344 346 345 346 345 342 339 340 341 338 333 328 319 306 296 290 277 258 244 231 220 217 220 219 212 208 208 208 206 204 204 204 203 204 204 205 206 207 207 207 207 209 210 210 210 210 209 208 207 207 205 203 203 204 205 207 209 210 209 207
286 293 298 302 305 307 309 311 315 320 324 327 331 335 336 335 333 333 337 339 337 338 341 342 344 347 349 349 350 350 347 344 345 346 344 340 336 330 317 303 295 285 266 245 230 220 217 219 220 214 210 208 207 205 203 203 202 202 201 202 203 203 204 205 205 206 206 207 207 207 207 205 205 205 204 201 200 201 203 204 206 208 208 206 205
299 304 306 307 307 306 307 309 314 321 326 329 334 338 338 335 334 337 340 342 342 343 344 345 346 348 350 352 353 353 352 350 348 348 348 345 340 334 324 311 302 292 272 244 228 221 218 217 217 214 210 208 206 205 203 202 202 201 200 200 200 201 202 202 202 203 203 203 204 203 202 201 202 202 199 197 196 197 200 202 204 206 206 205 204
302 306 308 308 307 305 307 311 315 322 327 332 338 341 339 338 340 342 343 344 347 348 348 348 348 350 353 356 357 357 356 354 352 352 354 356 353 346 333 320 311 301 279 250 234 227 222 217 214 211 208 206 204 203 202 202 201 201 200 200 200 201 201 201 200 200 200 200 200 199 199 198 198 196 194 193 194 195 197 200 203 203 202 201 201
304 307 308 308 306 305 308 312 314 320 326 331 336 339 340 343 347 347 345 345 348 350 351 352 352 353 357 360 1 2 2 0 359 360 2 6 9 10 3 351 341 335 311 254 226 218 213 209 206 203 201 200 200 199 198 198 198 198 197 197 197 197 197 197 196 196 196 195 195 195 195 194 192 190 189 190 191 193 196 199 200 199 198 197 197
310 311 312 312 311 310 310 311 316 321 326 330 333 336 340 345 348 348 347 347 349 352 354 356 356 358 360 2 4 6 6 7 8 8 9 13 18 21 22 24 25 20 17 70 183 187 187 187 188 190 190 190 191 191 190 189 189 188 188 188 188 189 189 190 191 192 191 190 190 190 189 187 186 185 186 187 189 192 196 198 196 194 193 193 193
314 318 320 320 321 321 316 315 320 325 331 335 337 339 342 346 349 350 351 352 354 355 357 0 2 2 3 5 7 8 10 12 15 16 15 18 23 28 31 36 43 49 62 89 126 148 154 155 159 167 174 177 178 179 180 180 180 180 180 181 181 182 183 185 188 189 187 184 183 183 182 182 182 183 184 186 190 193 195 194 192 190 189 188 189
321 325 329 330 331 330 326 323 324 326 330 337 342 344 347 350 354 356 356 357 358 359 1 5 7 7 6 7 10 11 13 17 21 23 22 22 27 34 37 39 46 58 72 89 109 124 131 133 134 140 152 162 167 169 171 173 175 175 176 177 177 179 180 181 181 181 180 179 178 178 178 180 181 182 184 187 190 189 188 186 184 184 185 185 186
331 331 334 337 338 337 336 336 334 332 336 344 349 351 353 355 358 360 1 1 2 2 5 9 11 10 10 10 12 14 17 20 24 26 28 29 34 40 40 39 45 59 75 89 105 118 124 126 125 126 134 146 154 158 160 162 165 167 169 170 170 171 174 175 174 173 174 175 176 176 177 178 181 183 185 187 187 184 183 181 180 181 183 185 187
336 336 338 340 340 339 340 341 340 341 348 353 353 352 354 358 1 2 2 3 4 6 8 11 12 13 13 14 14 16 20 23 25 28 31 35 39 42 42 42 49 64 78 89 103 117 123 124 121 120 125 135 143 147 149 151 153 156 158 159 160 163 166 168 170 171 172 173 175 176 177 179 181 183 184 186 185 183 181 180 180 181 184 186 188
341 342 343 344 344 344 343 343 343 344 347 349 351 354 358 1 3 5 6 6 7 9 10 12 15 17 17 18 18 19 21 25 28 30 34 38 42 44 45 47 53 65 76 87 99 112 120 124 124 122 123 130 138 142 145 147 149 151 153 156 158 161 164 166 168 170 172 173 175 177 178 180 181 182 183 184 184 183 181 180 181 183 186 187 189
341 342 342 343 347 348 346 343 344 347 349 350 354 359 2 3 6 9 10 9 9 10 11 14 19 20 20 21 21 22 23 26 30 34 37 40 43 45 47 50 56 64 72 80 92 104 112 120 126 127 127 130 136 141 144 145 146 148 151 155 158 162 165 167 168 169 171 173 175 177 178 179 180 180 180 180 179 180 180 181 183 184 186 188 190
339 342 342 344 347 348 347 345 343 344 347 350 353 356 359 2 4 6 7 7 8 10 13 16 20 22 23 23 24 24 26 28 31 35 38 42 44 45 45 48 55 62 68 75 86 96 103 110 120 128 132 133 136 141 145 146 146 148 151 155 157 160 163 167 169 171 172 174 175 176 177 177 177 176 176 176 177 179 181 182 183 184 187 188 189
336 341 344 346 347 348 347 346 343 341 343 346 348 351 354 356 357 360 2 3 4 7 12 16 19 23 25 25 25 26 28 30 31 34 37 40 44 47 48 49 53 57 63 71 81 89 94 101 112 124 131 134 137 140 144 147 149 151 153 156 158 160 163 167 170 172 173 174 175 175 175 175 175 174 173 175 177 178 179 180 182 184 186 187 188
332 337 341 344 347 348 347 346 344 342 342 344 344 345 347 349 351 354 358 0 1 3 8 13 17 21 24 26 26 28 28 29 31 34 36 38 41 46 49 52 55 57 60 67 75 82 89 96 105 116 126 134 138 141 144 147 149 152 154 157 159 161 164 167 170 171 171 173 174 173 172 171 170 170 171 173 175 177 178 180 182 184 185 186 187